TimePDT,TemperatureF,Dew PointF,Humidity,Sea Level PressureIn,VisibilityMPH,Wind Direction,Wind SpeedMPH,Gust SpeedMPH,PrecipitationIn,Events,Conditions,WindDirDegrees,DateUTC
12:15 AM,57.2,46.4,67,29.97,10.0,NE,9.2,-,N/A,,Clear,40,2013-05-17 07:15:00
12:35 AM,55.4,46.4,72,29.97,10.0,NNE,9.2,-,N/A,,Clear,30,2013-05-17 07:35:00
12:55 AM,55.4,46.4,72,29.96,10.0,NNE,11.5,-,N/A,,Clear,20,2013-05-17 07:55:00
1:15 AM,55.4,46.4,72,29.96,10.0,NNE,11.5,-,N/A,,Clear,30,2013-05-17 08:15:00
1:35 AM,55.4,46.4,72,29.96,10.0,NNE,11.5,-,N/A,,Clear,20,2013-05-17 08:35:00
1:55 AM,55.4,46.4,72,29.96,10.0,NNE,9.2,-,N/A,,Clear,30,2013-05-17 08:55:00
2:15 AM,53.6,46.4,77,29.96,10.0,North,8.1,-,N/A,,Clear,10,2013-05-17 09:15:00
2:35 AM,53.6,46.4,77,29.96,10.0,North,8.1,-,N/A,,Clear,10,2013-05-17 09:35:00
2:55 AM,53.6,46.4,77,29.96,10.0,NNE,6.9,-,N/A,,Clear,30,2013-05-17 09:55:00
3:15 AM,51.8,46.4,82,29.96,10.0,ENE,5.8,-,N/A,,Partly Cloudy,60,2013-05-17 10:15:00
3:35 AM,53.6,48.2,82,29.96,10.0,NNE,5.8,-,N/A,,Mostly Cloudy,30,2013-05-17 10:35:00
3:55 AM,51.8,48.2,88,29.96,10.0,NNE,5.8,-,N/A,,Partly Cloudy,30,2013-05-17 10:55:00
4:15 AM,51.8,48.2,88,29.96,10.0,NNE,4.6,-,N/A,,Clear,30,2013-05-17 11:15:00
4:35 AM,48.2,46.4,93,29.96,10.0,North,6.9,-,N/A,,Clear,10,2013-05-17 11:35:00
5:15 AM,48.2,48.2,100,29.96,10.0,North,8.1,-,N/A,,Clear,360,2013-05-17 12:15:00
5:35 AM,50.0,48.2,94,29.96,10.0,North,-9999.0,-,N/A,,Clear,0,2013-05-17 12:35:00
5:55 AM,50.0,48.2,94,29.96,10.0,North,-9999.0,-,N/A,,Clear,0,2013-05-17 12:55:00
6:15 AM,51.8,48.2,88,29.96,10.0,North,-9999.0,-,N/A,,Clear,0,2013-05-17 13:15:00
6:35 AM,53.6,48.2,82,29.97,10.0,North,-9999.0,-,N/A,,Clear,0,2013-05-17 13:35:00
6:45 AM,53.6,48.2,82,29.98,10.0,NNW,8.1,-,N/A,,Clear,330,2013-05-17 13:45:00
6:55 AM,55.4,48.2,77,29.98,10.0,North,-9999.0,-,N/A,,Clear,0,2013-05-17 13:55:00
7:45 AM,57.2,48.2,72,29.99,10.0,NNW,8.1,-,N/A,,Clear,330,2013-05-17 14:45:00
8:45 AM,62.6,44.6,52,30.00,10.0,North,8.1,-,N/A,,Clear,350,2013-05-17 15:45:00
9:45 AM,66.2,44.6,46,30.00,10.0,NNW,5.8,-,N/A,,Clear,330,2013-05-17 16:45:00
10:45 AM,71.6,42.8,35,30.00,10.0,NNW,9.2,-,N/A,,Clear,330,2013-05-17 17:45:00
12:45 PM,75.2,35.6,24,29.99,10.0,NNW,16.1,-,N/A,,Clear,330,2013-05-17 19:45:00
1:45 PM,78.8,39.2,24,29.99,10.0,North,11.5,-,N/A,,Clear,350,2013-05-17 20:45:00
2:45 PM,80.6,35.6,20,29.98,10.0,NNW,13.8,-,N/A,,Clear,330,2013-05-17 21:45:00
3:45 PM,80.6,35.6,20,29.97,10.0,NW,13.8,-,N/A,,Clear,310,2013-05-17 22:45:00
4:45 PM,80.6,32.0,17,29.96,10.0,NNW,11.5,-,N/A,,Clear,330,2013-05-17 23:45:00
5:45 PM,78.8,35.6,21,29.96,10.0,NNW,17.3,-,N/A,,Clear,330,2013-05-18 00:45:00
6:45 PM,75.2,37.4,25,29.96,10.0,NNW,13.8,-,N/A,,Clear,330,2013-05-18 01:45:00
7:45 PM,69.8,39.2,33,29.98,10.0,North,10.4,-,N/A,,Clear,350,2013-05-18 02:45:00
8:45 PM,64.4,39.2,40,30.00,10.0,North,10.4,-,N/A,,Clear,350,2013-05-18 03:45:00
9:15 PM,62.6,35.6,37,30.01,10.0,North,12.7,-,N/A,,Clear,10,2013-05-18 04:15:00
9:35 PM,60.8,35.6,39,30.02,10.0,North,9.2,-,N/A,,Clear,10,2013-05-18 04:35:00
9:55 PM,60.8,37.4,42,30.02,10.0,North,9.2,-,N/A,,Clear,10,2013-05-18 04:55:00
10:15 PM,60.8,33.8,36,30.03,10.0,North,-9999.0,-,N/A,,Clear,0,2013-05-18 05:15:00
10:35 PM,60.8,32.0,34,30.03,10.0,North,-9999.0,-,N/A,,Clear,0,2013-05-18 05:35:00
10:55 PM,59.0,33.8,39,30.03,10.0,North,-9999.0,-,N/A,,Clear,0,2013-05-18 05:55:00
11:15 PM,57.2,35.6,44,30.03,10.0,North,-9999.0,-,N/A,,Clear,0,2013-05-18 06:15:00
11:35 PM,57.2,37.4,48,30.03,10.0,North,-9999.0,-,N/A,,Clear,0,2013-05-18 06:35:00
11:55 PM,55.4,37.4,51,30.03,10.0,North,-9999.0,-,N/A,,Clear,0,2013-05-18 06:55:00